{"data":{"norad_id":47264,"intl_designator":"2020-100G","name":"ONEWEB-0118","alt_names":[],"object_type":"PAYLOAD","status":"ACTIVE","operator":null,"country":"UK","launch_date":"2020-12-18","launch_site_code":"VOSTO","launch_vehicle":null,"mission":null,"orbit_class":"UNKNOWN","rcs_meters":null,"size_class":null,"mass_kg":null,"dimensions":null,"purposes":["comms"],"wikipedia_slug":null,"has_3d_model":false,"image_url":null,"decayed_at":null,"tle_current":{"epoch":"2026-05-25T01:54:57.158208Z","epoch_age_seconds":64816,"freshness":"FRESH","line1":"1 47264U 20100G   26145.07982822 -.00000373  00000+0 -10717-2 0  9994","line2":"2 47264  87.8959 355.2478 0001930  96.0373 264.0976 13.12442084261693","mean_motion":13.12442084,"eccentricity":0.000193,"inclination_deg":87.8959,"raan_deg":355.2478,"arg_perigee_deg":96.0373,"mean_anomaly_deg":264.0976,"bstar":-0.0010717,"rev_number":26169,"period_min":109.71912723274,"perigee_km":1212.2615937489,"apogee_km":1215.1920531848,"semimajor_km":7591.8638234669,"source":"CELESTRAK","updated_at":"2026-05-25T13:38:22.380215Z"}}}